Highgate, VT

10:46 PM EDT on August 16, 2017 (GMT -0400)
Franklin County State

Weather History for KFSO - December, 2012

Change the Weather History Date:

Saturday, December 22, 2012

  Actual Average (KPBG) Record (KPBG)
Temperature  
Mean Temperature 26 °F -  
Max Temperature 34 °F 30 °F 54 °F (1949)
Min Temperature 17 °F 14 °F -17 °F (1970)
Degree Days  
Heating Degree Days 40    
Moisture  
Dew Point 20 °F    
Average Humidity 80    
Maximum Humidity 93    
Minimum Humidity 68    
Precipitation  
Precipitation 0.00 in - - ()
Sea Level Pressure  
Sea Level Pressure 29.37 in    
Wind  
Wind Speed 9 mph (WSW)    
Max Wind Speed 15 mph    
Max Gust Speed 26 mph    
Visibility 5 miles    
Events Snow    
Averages and records for this station are not official NWS values.
T = Trace of Precipitation, MM = Missing Value Source: NWS Daily Summary

Daily Weather History Graph

Daily Weather History Graph

Search for Another Location

Airport or City:

Trip Planner

Search our weather history database for the weather conditions in past years. The results will help you decide how hot, cold, wet, or windy it might be!

Date:

Astronomy

Dec. 22, 2012 Rise Set
Actual Time 7:28 AM EST 4:14 PM EST
Civil Twilight 6:54 AM EST 4:48 PM EST
Nautical Twilight 6:16 AM EST 5:25 PM EST
Astronomical Twilight 5:41 AM EST 6:01 PM EST
Moon 12:38 PM EST (12/22) 2:02 AM EST (12/22)
Length of Visible Light 9h 54m
Length of Day
8h 46m
Waxing Gibbous, 73% of the Moon is Illuminated
Dec 22
Waxing Gibbous
Dec 28
Full
Jan 4
Last Quarter
Jan 11
New
Jan 18
First Quarter

Hourly Weather History & Observations

Time (EST) Temp. Windchill Dew Point Humidity Pressure Visibility Wind Dir Wind Speed Gust Speed Precip Events Conditions
12:15 AM 34.3 °F 27.0 °F 30.4 °F 85% 29.04 in 10.0 mi South 9.2 mph - N/A   Overcast
12:35 AM 34.3 °F 27.0 °F 30.2 °F 85% 29.04 in 10.0 mi South 9.2 mph - N/A   Overcast
12:55 AM 34.3 °F 27.7 °F 30.2 °F 85% 29.04 in 10.0 mi South 8.1 mph - N/A   Overcast
1:15 AM 34.3 °F 27.7 °F 30.0 °F 84% 29.05 in 10.0 mi South 8.1 mph - N/A   Overcast
1:35 AM 34.3 °F 26.5 °F 30.0 °F 84% 29.05 in 10.0 mi South 10.4 mph - N/A   Overcast
1:55 AM 34.3 °F 29.2 °F 29.8 °F 84% 29.06 in 10.0 mi South 5.8 mph - N/A   Overcast
2:15 AM 34.3 °F 27.7 °F 30.2 °F 85% 29.07 in 10.0 mi South 8.1 mph 16.1 mph N/A   Overcast
2:35 AM 34.3 °F 28.4 °F 30.7 °F 87% 29.07 in 10.0 mi South 6.9 mph 18.4 mph N/A   Overcast
2:55 AM 34.3 °F 26.5 °F 31.1 °F 88% 29.08 in 10.0 mi South 10.4 mph - N/A   Overcast
3:15 AM 34.3 °F 27.0 °F 31.6 °F 90% 29.08 in 10.0 mi South 9.2 mph - N/A   Overcast
3:35 AM 34.3 °F 29.2 °F 32.0 °F 91% 29.08 in 10.0 mi South 5.8 mph 17.3 mph N/A   Overcast
4:15 AM 33.8 °F 27.7 °F 32.0 °F 93% 29.09 in 10.0 mi SSW 6.9 mph - N/A   Overcast
4:35 AM 34.3 °F 29.2 °F 32.0 °F 91% 29.10 in 10.0 mi SSW 5.8 mph - N/A   Overcast
4:55 AM 34.3 °F 31.4 °F 30.7 °F 87% 29.11 in 10.0 mi WSW 3.5 mph - N/A   Overcast
5:15 AM 34.0 °F 29.8 °F 30.0 °F 85% 29.12 in 10.0 mi WSW 4.6 mph - N/A   Overcast
5:35 AM 33.1 °F 30.0 °F 28.4 °F 83% 29.13 in 10.0 mi West 3.5 mph - N/A   Overcast
5:55 AM 32.0 °F 28.7 °F 28.8 °F 88% 29.15 in 2.0 mi West 3.5 mph - N/A Snow Light Snow
6:15 AM 32.0 °F 24.8 °F 27.3 °F 83% 29.17 in 10.0 mi West 8.1 mph - N/A Snow Light Snow
6:35 AM 32.0 °F 25.6 °F 25.5 °F 77% 29.19 in 10.0 mi West 6.9 mph - N/A Snow Light Snow
6:55 AM 29.5 °F 21.8 °F 24.6 °F 82% 29.21 in 2.5 mi WSW 8.1 mph - N/A Snow Light Snow
7:15 AM 28.9 °F 20.4 °F 22.3 °F 76% 29.22 in 7.0 mi WSW 9.2 mph 16.1 mph N/A Snow Light Snow
7:35 AM 28.4 °F 19.7 °F 21.2 °F 74% 29.23 in 4.0 mi WSW 9.2 mph 19.6 mph N/A Snow Light Snow
7:55 AM 28.0 °F 20.0 °F 20.3 °F 73% 29.25 in 5.0 mi West 8.1 mph 24.2 mph N/A Snow Light Snow
8:15 AM 27.3 °F 19.1 °F 20.7 °F 76% 29.26 in 5.0 mi WSW 8.1 mph 16.1 mph N/A Snow Light Snow
8:35 AM 27.5 °F 20.2 °F 20.1 °F 74% 29.28 in 3.0 mi West 6.9 mph 18.4 mph N/A Snow Light Snow
8:55 AM 27.1 °F 16.9 °F 21.4 °F 79% 29.28 in 2.0 mi WSW 11.5 mph 20.7 mph N/A Snow Light Snow
9:15 AM 27.1 °F 18.9 °F 20.8 °F 77% 29.30 in 2.5 mi West 8.1 mph 17.3 mph N/A Snow Light Snow
9:35 AM 27.1 °F 18.2 °F 21.2 °F 78% 29.31 in 2.5 mi WSW 9.2 mph - N/A Snow Light Snow
9:55 AM 27.1 °F 19.7 °F 18.9 °F 71% 29.32 in 3.0 mi WSW 6.9 mph 21.9 mph N/A Snow Light Snow
10:15 AM 27.1 °F 18.9 °F 19.2 °F 72% 29.33 in 3.0 mi WSW 8.1 mph - N/A Snow Light Snow
10:35 AM 27.1 °F 18.2 °F 20.3 °F 75% 29.34 in 1.5 mi WSW 9.2 mph 21.9 mph N/A Snow Light Snow
10:55 AM 27.1 °F 18.2 °F 20.1 °F 75% 29.34 in 1.8 mi West 9.2 mph 17.3 mph N/A Snow Light Snow
11:15 AM 26.4 °F 18.0 °F 19.9 °F 77% 29.35 in 1.0 mi WSW 8.1 mph 21.9 mph N/A Snow Light Snow
11:35 AM 24.8 °F 13.4 °F 18.3 °F 76% 29.36 in 1.5 mi WSW 12.7 mph 23.0 mph N/A Snow Light Snow
11:55 AM 24.6 °F 15.8 °F 18.5 °F 78% 29.37 in 1.8 mi WSW 8.1 mph 21.9 mph N/A Snow Light Snow
12:15 PM 24.6 °F 13.8 °F 18.5 °F 78% 29.37 in 1.5 mi WSW 11.5 mph 26.5 mph N/A Snow Light Snow
12:35 PM 24.6 °F 13.2 °F 17.6 °F 75% 29.38 in 2.0 mi WSW 12.7 mph 21.9 mph N/A Snow Light Snow
12:55 PM 24.6 °F 12.2 °F 16.5 °F 71% 29.38 in 5.0 mi West 15.0 mph 23.0 mph N/A Snow Light Snow
1:15 PM 24.6 °F 13.8 °F 16.5 °F 71% 29.39 in 7.0 mi West 11.5 mph 20.7 mph N/A Snow Light Snow
1:35 PM 24.6 °F 14.4 °F 15.8 °F 69% 29.40 in 7.0 mi West 10.4 mph 24.2 mph N/A Snow Light Snow
1:55 PM 24.6 °F 12.7 °F 15.4 °F 68% 29.42 in 10.0 mi West 13.8 mph 26.5 mph N/A Snow Light Snow
2:15 PM 23.4 °F 12.8 °F 14.4 °F 68% 29.43 in 10.0 mi West 10.4 mph 24.2 mph N/A Snow Light Snow
2:55 PM 21.4 °F 10.4 °F 16.0 °F 80% 29.46 in 0.8 mi West 10.4 mph 19.6 mph N/A Snow Light Snow
3:15 PM 21.6 °F 12.1 °F 15.4 °F 77% 29.47 in 1.5 mi West 8.1 mph 24.2 mph N/A Snow Light Snow
3:35 PM 22.1 °F 10.0 °F 14.2 °F 72% 29.48 in 5.0 mi West 12.7 mph 25.3 mph N/A Snow Light Snow
3:55 PM 21.7 °F 10.2 °F 13.8 °F 72% 29.49 in 7.0 mi West 11.5 mph 24.2 mph N/A Snow Light Snow
4:15 PM 21.4 °F 10.4 °F 14.2 °F 74% 29.50 in 10.0 mi West 10.4 mph 19.6 mph N/A   Overcast
4:35 PM 21.2 °F 10.1 °F 13.8 °F 73% 29.51 in 7.0 mi West 10.4 mph 24.2 mph N/A Snow Light Snow
4:55 PM 21.0 °F 11.4 °F 14.2 °F 75% 29.52 in 10.0 mi West 8.1 mph 19.6 mph N/A Snow Light Snow
5:15 PM 20.8 °F 8.4 °F 14.9 °F 78% 29.53 in 5.0 mi West 12.7 mph 18.4 mph N/A Snow Light Snow
5:35 PM 20.8 °F 12.1 °F 15.3 °F 79% 29.55 in 5.0 mi WSW 6.9 mph 16.1 mph N/A Snow Light Snow
5:55 PM 20.5 °F 12.8 °F 14.5 °F 78% 29.56 in 7.0 mi West 5.8 mph 21.9 mph N/A Snow Light Snow
6:15 PM 20.3 °F 7.7 °F 14.0 °F 77% 29.57 in 7.0 mi West 12.7 mph 19.6 mph N/A Snow Light Snow
6:35 PM 20.1 °F 12.3 °F 14.5 °F 79% 29.58 in 5.0 mi West 5.8 mph - N/A Snow Light Snow
6:55 PM 19.9 °F 8.6 °F 13.5 °F 76% 29.59 in 5.0 mi West 10.4 mph 18.4 mph N/A Snow Light Snow
7:15 PM 19.8 °F 7.1 °F 13.3 °F 76% 29.60 in 4.0 mi West 12.7 mph 20.7 mph N/A Snow Light Snow
7:35 PM 19.6 °F 11.7 °F 13.8 °F 78% 29.61 in 3.0 mi West 5.8 mph 17.3 mph N/A Snow Light Snow
7:55 PM 19.4 °F 12.8 °F 14.9 °F 83% 29.61 in 2.5 mi West 4.6 mph - N/A Snow Light Snow
8:15 PM 19.4 °F 11.5 °F 15.8 °F 86% 29.62 in 1.5 mi West 5.8 mph - N/A Snow Light Snow
8:35 PM 19.4 °F 10.4 °F 16.2 °F 87% 29.63 in 1.2 mi WNW 6.9 mph 18.4 mph N/A Snow Light Snow
8:55 PM 19.2 °F 5.8 °F 16.2 °F 88% 29.64 in 1.2 mi West 13.8 mph 21.9 mph N/A Snow Light Snow
9:15 PM 18.5 °F 6.8 °F 13.1 °F 79% 29.65 in 2.5 mi West 10.4 mph 24.2 mph N/A Snow Light Snow
9:35 PM 18.3 °F 6.6 °F 12.7 °F 79% 29.66 in 3.0 mi West 10.4 mph 21.9 mph N/A Snow Light Snow
9:55 PM 18.3 °F 6.6 °F 13.6 °F 82% 29.66 in 2.0 mi West 10.4 mph 18.4 mph N/A Snow Light Snow
10:15 PM 17.6 °F 5.7 °F 14.0 °F 86% 29.67 in 1.5 mi WNW 10.4 mph - N/A Snow Light Snow
10:35 PM 17.2 °F 7.8 °F 13.8 °F 86% 29.68 in 1.5 mi WNW 6.9 mph - N/A Snow Light Snow
10:55 PM 17.2 °F 5.2 °F 14.0 °F 87% 29.69 in 1.0 mi West 10.4 mph 17.3 mph N/A Snow Light Snow
11:15 PM 17.2 °F 7.8 °F 14.4 °F 88% 29.70 in 1.0 mi West 6.9 mph - N/A Snow Light Snow
11:35 PM 17.2 °F 6.8 °F 14.5 °F 89% 29.70 in 1.0 mi WNW 8.1 mph - N/A Snow Snow
11:55 PM 17.6 °F 9.3 °F 14.9 °F 89% 29.70 in 0.8 mi West 5.8 mph - N/A Snow Snow